Wright-Patt AFB, OH

7:41 AM EDT on June 27, 2017 (GMT -0400)
Wright-Patterson Air Force Base

Weather History for KFFO - April, 2014

Change the Weather History Date:

Saturday, April 5, 2014

  Actual Average Record
Temperature  
Mean Temperature 42 °F -  
Max Temperature 49 °F 59 °F 78 °F (2005)
Min Temperature 35 °F 36 °F 24 °F (1998)
Degree Days  
Heating Degree Days 24    
Moisture  
Dew Point 27 °F    
Average Humidity 60    
Maximum Humidity 81    
Minimum Humidity 45    
Precipitation  
Precipitation 0.00 in - - ()
Sea Level Pressure  
Sea Level Pressure 30.14 in    
Wind  
Wind Speed 14 mph (WNW)    
Max Wind Speed 24 mph    
Max Gust Speed 31 mph    
Visibility 10 miles    
Events      
Averages and records for this station are not official NWS values.
T = Trace of Precipitation, MM = Missing Value Source: NWS Daily Summary

Daily Weather History Graph

Daily Weather History Graph

Search for Another Location

Airport or City:

Trip Planner

Search our weather history database for the weather conditions in past years. The results will help you decide how hot, cold, wet, or windy it might be!

Date:

Astronomy

Apr. 05, 2014 Rise Set
Actual Time 7:13 AM EDT 8:04 PM EDT
Civil Twilight 6:46 AM EDT 8:31 PM EDT
Nautical Twilight 6:14 AM EDT 9:04 PM EDT
Astronomical Twilight 5:40 AM EDT 9:38 PM EDT
Moon 11:21 AM EDT (4/5) 1:13 AM EDT (4/5)
Length of Visible Light 13h 45m
Length of Day
12h 50m
Waxing Crescent, 34% of the Moon is Illuminated
Apr 5
Waxing Crescent
Apr 7
First Quarter
Apr 15
Full
Apr 22
Last Quarter
Apr 29
New

Hourly Weather History & Observations

Time (EDT) Temp. Windchill Dew Point Humidity Pressure Visibility Wind Dir Wind Speed Gust Speed Precip Events Conditions
12:28 AM 39.2 °F 28.5 °F 26.6 °F 61% 29.96 in 10.0 mi West 24.2 mph 31.1 mph N/A   Overcast
12:58 AM 39.4 °F 30.1 °F 27.5 °F 62% 29.99 in 10.0 mi West 18.4 mph 29.9 mph N/A   Overcast
1:58 AM 38.5 °F 29.2 °F 26.6 °F 62% 30.01 in 10.0 mi West 17.3 mph 26.5 mph N/A   Overcast
2:58 AM 37.9 °F 28.9 °F 24.3 °F 58% 30.03 in 10.0 mi West 16.1 mph 25.3 mph N/A   Overcast
3:58 AM 37.9 °F 28.9 °F 25.5 °F 61% 30.04 in 10.0 mi West 16.1 mph - N/A   Overcast
4:58 AM 37.2 °F 27.9 °F 25.5 °F 63% 30.06 in 10.0 mi West 16.1 mph 26.5 mph N/A   Overcast
5:08 AM 37.4 °F 29.3 °F 26.6 °F 65% 30.04 in 10.0 mi West 12.7 mph 23.0 mph N/A   Overcast
5:58 AM 37.4 °F 30.3 °F 26.1 °F 64% 30.08 in 10.0 mi West 10.4 mph - N/A   Overcast
6:48 AM 37.4 °F 29.3 °F 26.6 °F 65% 30.07 in 10.0 mi West 12.7 mph - N/A   Overcast
6:58 AM 37.0 °F 29.3 °F 26.1 °F 65% 30.10 in 10.0 mi West 11.5 mph - N/A   Overcast
7:48 AM 35.6 °F 26.2 °F 26.6 °F 70% 30.10 in 10.0 mi West 15.0 mph 20.7 mph N/A   Overcast
7:58 AM 36.3 °F 26.8 °F 26.8 °F 68% 30.14 in 10.0 mi WNW 16.1 mph 23.0 mph N/A   Overcast
8:58 AM 35.2 °F 25.8 °F 24.8 °F 66% 30.17 in 10.0 mi NW 15.0 mph 20.7 mph N/A   Overcast
9:58 AM 35.8 °F 26.5 °F 24.6 °F 64% 30.19 in 10.0 mi West 15.0 mph - N/A   Mostly Cloudy
10:58 AM 37.8 °F 29.0 °F 25.9 °F 62% 30.20 in 10.0 mi NNW 15.0 mph - N/A   Mostly Cloudy
11:03 AM 37.4 °F 28.5 °F 26.6 °F 65% 30.20 in 10.0 mi WNW 15.0 mph 18.4 mph N/A   Mostly Cloudy
11:58 AM 40.1 °F 32.4 °F 27.0 °F 59% 30.21 in 10.0 mi NW 13.8 mph 18.4 mph N/A   Scattered Clouds
12:48 PM 42.8 °F 36.2 °F 28.4 °F 57% 30.19 in 10.0 mi WNW 12.7 mph - N/A   Scattered Clouds
12:52 PM 42.8 °F 36.2 °F 28.4 °F 57% 30.19 in 10.0 mi NW 12.7 mph - N/A   Scattered Clouds
12:58 PM 42.4 °F 37.0 °F 27.7 °F 56% 30.20 in 10.0 mi NW 9.2 mph 19.6 mph N/A   Scattered Clouds
1:58 PM 44.8 °F 39.4 °F 28.6 °F 53% 30.21 in 10.0 mi WNW 10.4 mph - N/A   Scattered Clouds
2:58 PM 46.9 °F - 29.1 °F 50% 30.19 in 10.0 mi Variable 5.8 mph - N/A   Scattered Clouds
3:58 PM 48.4 °F - 28.8 °F 47% 30.19 in 10.0 mi NW 8.1 mph - N/A   Scattered Clouds
4:58 PM 48.2 °F - 28.2 °F 46% 30.18 in 10.0 mi North 9.2 mph - N/A   Partly Cloudy
5:58 PM 48.7 °F - 28.0 °F 45% 30.18 in 10.0 mi Variable 2.3 mph - N/A   Partly Cloudy
6:58 PM 48.2 °F - 27.5 °F 45% 30.19 in 10.0 mi NNW 3.5 mph - N/A   Clear
7:58 PM 46.6 °F - 28.6 °F 50% 30.20 in 10.0 mi NNE 4.6 mph - N/A   Clear
8:58 PM 43.0 °F 40.3 °F 27.9 °F 55% 30.21 in 10.0 mi NNE 4.6 mph - N/A   Clear
9:58 PM 39.9 °F 36.7 °F 29.3 °F 66% 30.22 in 10.0 mi NE 4.6 mph - N/A   Clear
10:58 PM 39.0 °F - 30.7 °F 72% 30.22 in 10.0 mi NNW 1.2 mph - N/A   Clear
11:58 PM 35.4 °F - 30.0 °F 81% 30.22 in 10.0 mi Calm Calm - N/A   Clear